sat.trackr.live / text

‹ back to catalog

STARLINK-31075

NORAD 58594 · 2023-200F

PAYLOAD ACTIVE UNKNOWN

§ Identity

Operator
Country
US
Launch date
2023-12-19
Launch site
AFETR
Launch vehicle
Mass (kg)
RCS (m²)

Purposes: comms

External: N2YO · Heavens-Above · Gunter

§ Orbital elements

Epoch: 2026-05-24T22:04:54.761664Z

Period
94.27 min
Inclination
43.0042°
Eccentricity
0.0001244
Mean motion
15.27580844 rev/d
Perigee alt
482.2 km
Apogee alt
483.9 km
Semi-major
6,861.2 km
B*
4.2547e-5
RAAN
97.9664°
Arg perigee
287.2065°
Mean anomaly
72.8651°
Rev number
13,527

§ Raw data

STARLINK-310751 58594U 23200F   26144.92007826  .00000909  00000+0  42547-4 0  99922 58594  43.0042  97.9664 0001244 287.2065  72.8651 15.27580844135279

JSON: /api/v1/satellites/58594 · /tle

For live sub-satellite position, see the globe view (requires WebGL).

§ Visibility from observer

Set your observer location to see the next 7 days of passes ≥ 10°. The values pass through the URL so the page stays shareable.

No JS? Fill the form by hand. The geolocation button needs JavaScript.